User: anonymous   Login
Location: Unspecified
(40.7945°N, 0.0000°E)
Time: 20:14:10
(UTC+00:00)
Language:

STRAND 1 - Orbit

View from above orbital plane
View from above orbital plane
View from above satellite
View from above satellite

Ground track
Ground track

The orbit data is extracted from the following two-line orbital elements,

1 39090U 13009E   19202.83445531  .00000002  00000-0  15978-4 0  9997
2 39090  98.4859  48.2324 0008954 182.9046 177.2089 14.35090697335149
Epoch (UTC): 21 July 2019 20:01:36
Eccentricity: 0.0008954
inclination: 98.4859°
perigee height: 768 km
apogee height: 781 km
right ascension of ascending node: 48.2324°
argument of perigee: 182.9046°
revolutions per day: 14.35090697
mean anomaly at epoch: 177.2089°
orbit number at epoch: 33514

The dashed part of the orbit path shows where the satellite is in the earth's shadow,  

DLR